パンスターズ彗星

P/2017 R1 ( PanSTARRS )

English version
Home page
Updated on December 17, 2017

---------------------------------------------------------------------

・ プロフィール

発見日 2017年9月14日
発見光度 21.2等
発見者 Pan-STARRS 1 telescope (Haleakala)

・ 写真集

・ 軌道要素

Epoch 2017 Mar. 28.0 TT = JDT 2457840.5
T 2017 Apr. 8.07944 TT                                  MPCW
q   3.3270443            (2000.0)            P               Q
n   0.11737831     Peri.  178.35519     +0.78809099     +0.61498337
a   4.1312120      Node   143.65069     -0.56527547     +0.74014943
e   0.1946566      Incl.    2.57312     -0.24367239     +0.27198213
P   8.40
From 61 observations 2017 July 30-Oct. 14, mean residual 0".3.

・ 光度変化

        m1 = 13.5 + 5 logΔ + 10.0 log r

---------------------------------------------------------------------

軌道要素はM.P.E.C. 2017-V13に掲載されたものです。
光度グラフはComet for Windowsで作成したものです。

---------------------------------------------------------------------

Copyright(C) Seiichi Yoshida (comet@aerith.net). All rights reserved.